Regional Weather Roundup
Issued by NWS Cleveland, OH

Home | Current Version | Previous Version | Text Only | Print | Product List | Glossary Off
Versions: 1 2 3 4 5 6 7 8 9 10 11 12 13 14 15 16 17 18 19 20 21 22 23 24 25 26 27 28 29 30 31 32 33 34 35 36 37 38 39 40 41 42 43 44 45 46 47 48 49 50

000
ASUS41 KCLE 010110
RWRCLE
OHIO REGIONAL WEATHER ROUNDUP
NATIONAL WEATHER SERVICE CLEVELAND, OH
800 PM EST SAT FEB 28 2015

NOTE: "FAIR" INDICATES FEW OR NO CLOUDS BELOW 12,000 FEET WITH NO
SIGNIFICANT WEATHER AND/OR OBSTRUCTIONS TO VISIBILITY.

OHZ001>008-015>018-024>027-034-035-043-044-010200-
   NORTHWEST OHIO

CITY           SKY/WX    TMP DP  RH WIND       PRES   REMARKS
DEFIANCE       FAIR      17   4  56 E7        30.58F WCI   8
FINDLAY        FAIR      19   1  45 E8        30.57F WCI   9
TOLEDO EXPRESS FAIR      16   1  51 CALM      30.60F
TOLEDO EXEC    FAIR      15   3  59 E5        30.62F WCI   8
LIMA           CLOUDY    19   7  59 E7        30.55F WCI  10
$$

OHZ009>014-019>023-028>033-038-089-010200-
   NORTHEAST OHIO

CITY           SKY/WX    TMP DP  RH WIND       PRES   REMARKS
CLE-HOPKINS    FAIR      13   2  61 N3        30.65F
CLE-LAKEFRONT  FAIR      11   4  73 NE3       30.63F
CUY CO. ARPT   PTCLDY    16   7  67 E7        30.62F WCI   6
LORAIN-ELYRIA  FAIR      13   3  64 E5        30.62F WCI   5
ASHTABULA      FAIR      11   0  61 CALM      30.63F
AKRON-CANTON   FAIR      19   0  43 E6        30.58F WCI  11
WOOSTER        FAIR      13   1  59 E3        30.59S
MANSFIELD      FAIR      17   3  54 E7        30.56F WCI   8
YOUNGSTOWN     FAIR      17  -5  37 E6        30.59F WCI   9
$$

OHZ042-051>053-060>062-070>072-077>081-010200-
  SOUTHWEST OHIO

CITY           SKY/WX    TMP DP  RH WIND       PRES   REMARKS
CINC-COVINGTON CLOUDY    28  13  53 E8        30.51F WCI  20
CINC-LUNKEN    CLOUDY    25  14  63 NE10      30.55F WCI  15
HAMILTON       CLOUDY    25  12  58 E9        30.55F WCI  15
DAYTON         CLOUDY    22   8  55 E6        30.54F WCI  14
WRIGHT-PAT AFB CLOUDY    22   6  50 E5        30.54F WCI  16
DAYTON GENERAL CLOUDY    22   8  55 E7        30.52F WCI  13
WILMINGTON     CLOUDY    22  10  60 E7        30.52F WCI  13
$$

OHZ036-037-039>041-045>050-054>059-063>069-073>076-082>088-010200-
  CENTRAL AND SOUTHEAST OHIO

CITY           SKY/WX    TMP DP  RH WIND       PRES   REMARKS
COLUMBUS       CLOUDY    23   4  44 E5        30.56F WCI  17
OSU AIRPORT    CLOUDY    23   5  46 E6        30.55F WCI  16
BOLTON FIELD   CLOUDY   N/A N/A N/A NE5       30.55F
RICKENBACK AFB MOCLDY    23   8  52 E8        30.55F WCI  14
NEWARK         FAIR      22   4  46 NE5       30.57F WCI  16
MARION         FAIR      15   5  64 E5        30.56F WCI   8
LANCASTER      FAIR      22   6  50 E7        30.56F WCI  13
ZANESVILLE     MOCLDY    23   3  42 E5        30.58F WCI  17
NEW PHILLY     FAIR      22   6  50 CALM      30.61S
$$



USA.gov is the U.S. government's official web portal to all federal, state and local government web resources and services.